| time (UTC) | temp C | wind direction | speed KPH | gust KPH | rain 1hr cm | rain 24hr cm | rain mn cm | humidity % | barometer mb |
| 20260509202036 | 32 | 0.0 | 6.4 | 0.00 | 0.00 | 0.00 | 45 | 1009.3 | |
| 20260509201016 | 32 | 293 | 1.6 | 12.9 | 0.00 | 0.00 | 0.00 | 46 | 1009.3 |
| 20260509200015 | 32 | 293 | 1.6 | 9.7 | 0.00 | 0.03 | 0.00 | 48 | 1009.6 |
| 20260509195015 | 32 | 293 | 1.6 | 14.5 | 0.00 | 0.10 | 0.00 | 46 | 1009.6 |
| 20260509194016 | 32 | 293 | 3.2 | 11.3 | 0.00 | 0.13 | 0.00 | 47 | 1009.7 |
| 20260509193016 | 32 | 0.0 | 1.6 | 0.00 | 0.13 | 0.00 | 46 | 1009.9 | |
| 20260509192036 | 31 | 0.0 | 3.2 | 0.00 | 0.13 | 0.00 | 48 | 1010.0 | |
| 20260509191016 | 31 | 0.0 | 8.0 | 0.00 | 0.13 | 0.00 | 50 | 1009.9 | |
| 20260509190016 | 30 | 293 | 1.6 | 11.3 | 0.00 | 0.13 | 0.00 | 52 | 1010.0 |
| 20260509185015 | 30 | 270 | 3.2 | 11.3 | 0.00 | 0.13 | 0.00 | 52 | 1010.0 |
| 20260509184015 | 30 | 293 | 3.2 | 11.3 | 0.00 | 0.13 | 0.00 | 53 | 1010.1 |
| 20260509183016 | 30 | 293 | 4.8 | 14.5 | 0.00 | 0.13 | 0.00 | 52 | 1010.2 |
| 20260509182015 | 31 | 293 | 1.6 | 12.9 | 0.00 | 0.13 | 0.00 | 52 | 1010.5 |
| 20260509181015 | 30 | 293 | 1.6 | 9.7 | 0.00 | 0.13 | 0.00 | 53 | 1010.5 |
| 20260509180016 | 30 | 270 | 3.2 | 11.3 | 0.00 | 0.13 | 0.00 | 53 | 1010.7 |
| 20260509175016 | 30 | 315 | 3.2 | 12.9 | 0.00 | 0.13 | 0.00 | 54 | 1010.7 |
| 20260509174016 | 29 | 0.0 | 4.8 | 0.00 | 0.13 | 0.00 | 57 | 1010.8 | |
| 20260509173016 | 29 | 293 | 6.4 | 17.7 | 0.00 | 0.13 | 0.00 | 54 | 1010.9 |
| 20260509172016 | 29 | 270 | 3.2 | 12.9 | 0.00 | 0.13 | 0.00 | 55 | 1011.0 |
| 20260509171016 | 28 | 0.0 | 9.7 | 0.00 | 0.13 | 0.00 | 58 | 1011.1 | |
| 20260509170016 | 28 | 293 | 1.6 | 8.0 | 0.00 | 0.13 | 0.00 | 58 | 1011.1 |
| 20260509165016 | 28 | 270 | 1.6 | 9.7 | 0.00 | 0.13 | 0.00 | 61 | 1011.1 |
| 20260509164016 | 28 | 270 | 1.6 | 14.5 | 0.00 | 0.13 | 0.00 | 59 | 1011.2 |
| 20260509163016 | 28 | 0.0 | 9.7 | 0.00 | 0.13 | 0.00 | 62 | 1011.3 | |
| 20260509162016 | 27 | 0.0 | 4.8 | 0.00 | 0.13 | 0.00 | 63 | 1011.2 | |
| 20260509161016 | 27 | 270 | 8.0 | 16.1 | 0.00 | 0.13 | 0.00 | 61 | 1011.2 |
| 20260509160015 | 27 | 270 | 1.6 | 9.7 | 0.00 | 0.13 | 0.00 | 62 | 1011.3 |
| 20260509155036 | 27 | 270 | 1.6 | 9.7 | 0.00 | 0.13 | 0.00 | 64 | 1011.2 |
| 20260509154036 | 26 | 293 | 1.6 | 6.4 | 0.00 | 0.13 | 0.00 | 66 | 1011.1 |
| 20260509153016 | 26 | 293 | 1.6 | 6.4 | 0.00 | 0.13 | 0.00 | 67 | 1011.0 |
| 20260509152015 | 26 | 293 | 6.4 | 12.9 | 0.00 | 0.13 | 0.00 | 67 | 1010.9 |
| 20260509151016 | 25 | 293 | 3.2 | 12.9 | 0.00 | 0.13 | 0.00 | 67 | 1010.9 |
| 20260509150036 | 25 | 315 | 8.0 | 14.5 | 0.00 | 0.13 | 0.00 | 69 | 1010.9 |
| 20260509145016 | 24 | 293 | 11.3 | 17.7 | 0.00 | 0.13 | 0.00 | 69 | 1011.0 |
| 20260509144016 | 23 | 338 | 8.0 | 14.5 | 0.00 | 0.13 | 0.00 | 75 | 1011.0 |
| 20260509143015 | 23 | 315 | 9.7 | 17.7 | 0.00 | 0.13 | 0.00 | 78 | 1011.0 |
| 20260509142035 | 22 | 270 | 6.4 | 14.5 | 0.00 | 0.13 | 0.00 | 81 | 1011.0 |
| 20260509141015 | 22 | 293 | 4.8 | 12.9 | 0.00 | 0.13 | 0.00 | 83 | 1011.1 |
| 20260509140016 | 22 | 270 | 4.8 | 12.9 | 0.00 | 0.13 | 0.00 | 83 | 1011.1 |
| 20260509135016 | 21 | 293 | 3.2 | 14.5 | 0.00 | 0.13 | 0.00 | 83 | 1011.1 |
| 20260509134015 | 21 | 270 | 4.8 | 12.9 | 0.00 | 0.13 | 0.00 | 84 | 1011.0 |
| 20260509133036 | 21 | 0.0 | 1.6 | 0.00 | 0.13 | 0.00 | 84 | 1011.0 | |
| 20260509132016 | 21 | 293 | 3.2 | 12.9 | 0.00 | 0.13 | 0.00 | 85 | 1010.8 |
| 20260509131015 | 21 | 0.0 | 0.0 | 0.00 | 0.13 | 0.00 | 86 | 1010.7 | |
| 20260509130015 | 20 | 0.0 | 1.6 | 0.00 | 0.13 | 0.00 | 87 | 1010.7 | |
| 20260509125015 | 20 | 0.0 | 3.2 | 0.00 | 0.13 | 0.00 | 87 | 1010.7 | |
| 20260509124015 | 19 | 0.0 | 0.0 | 0.00 | 0.13 | 0.00 | 88 | 1010.7 | |
| 20260509123015 | 18 | 0.0 | 0.0 | 0.00 | 0.13 | 0.00 | 87 | 1010.5 | |
| 20260509122016 | 18 | 0.0 | 4.8 | 0.00 | 0.13 | 0.00 | 87 | 1010.5 | |
| 20260509121016 | 18 | 0.0 | 0.0 | 0.00 | 0.13 | 0.00 | 86 | 1010.4 | |
| 20260509120016 | 18 | 0.0 | 0.0 | 0.00 | 0.13 | 0.00 | 86 | 1010.4 | |
| 20260509115035 | 18 | 0.0 | 0.0 | 0.00 | 0.13 | 0.00 | 84 | 1010.4 | |
| 20260509114015 | 18 | 0.0 | 0.0 | 0.00 | 0.13 | 0.00 | 83 | 1010.1 | |
| 20260509113015 | 19 | 0.0 | 0.0 | 0.00 | 0.13 | 0.00 | 83 | 1009.9 | |
| 20260509112015 | 19 | 0.0 | 1.6 | 0.00 | 0.13 | 0.00 | 82 | 1009.9 | |
| 20260509111015 | 19 | 0.0 | 0.0 | 0.00 | 0.13 | 0.00 | 83 | 1009.9 | |
| 20260509110015 | 20 | 0.0 | 0.0 | 0.00 | 0.13 | 0.00 | 84 | 1009.9 | |
| 20260509105016 | 20 | 0.0 | 4.8 | 0.00 | 0.13 | 0.00 | 86 | 1009.8 | |
| 20260509104015 | 20 | 293 | 4.8 | 17.7 | 0.00 | 0.13 | 0.00 | 87 | 1009.7 |
| 20260509103015 | 21 | 270 | 8.0 | 24.1 | 0.00 | 0.13 | 0.00 | 91 | 1009.7 |
| 20260509102015 | 21 | 293 | 3.2 | 11.3 | 0.00 | 0.13 | 0.00 | 92 | 1009.7 |
| 20260509101016 | 21 | 293 | 11.3 | 19.3 | 0.00 | 0.13 | 0.00 | 92 | 1009.6 |
| 20260509100015 | 21 | 293 | 4.8 | 16.1 | 0.00 | 0.13 | 0.00 | 93 | 1008.9 |
| 20260509095035 | 21 | 158 | 8.0 | 19.3 | 0.00 | 0.13 | 0.00 | 93 | 1007.7 |
| 20260509094035 | 21 | 135 | 16.1 | 30.6 | 0.00 | 0.13 | 0.00 | 93 | 1007.1 |
| 20260509093016 | 21 | 135 | 17.7 | 30.6 | 0.00 | 0.13 | 0.00 | 93 | 1006.8 |
| 20260509092016 | 21 | 135 | 19.3 | 37.0 | 0.00 | 0.13 | 0.00 | 93 | 1006.4 |
| 20260509091015 | 21 | 135 | 19.3 | 32.2 | 0.00 | 0.13 | 0.00 | 93 | 1006.8 |
| 20260509090015 | 21 | 135 | 14.5 | 29.0 | 0.00 | 0.13 | 0.00 | 94 | 1007.3 |
| 20260509085036 | 21 | 135 | 16.1 | 27.4 | 0.00 | 0.13 | 0.13 | 94 | 1007.5 |
| 20260509084017 | 21 | 135 | 12.9 | 24.1 | 0.00 | 0.13 | 0.13 | 94 | 1007.8 |
| 20260509083016 | 20 | 135 | 12.9 | 20.9 | 0.00 | 0.13 | 0.13 | 94 | 1008.1 |
| 20260509082016 | 20 | 135 | 11.3 | 16.1 | 0.00 | 0.13 | 0.13 | 95 | 1008.6 |
| 20260509081016 | 20 | 135 | 9.7 | 16.1 | 0.00 | 0.13 | 0.13 | 94 | 1008.8 |
| 20260509080016 | 20 | 135 | 11.3 | 16.1 | 0.00 | 0.13 | 0.13 | 94 | 1009.3 |
| 20260509075016 | 20 | 135 | 11.3 | 19.3 | 0.00 | 0.13 | 0.13 | 94 | 1009.6 |
| 20260509074016 | 20 | 158 | 4.8 | 11.3 | 0.00 | 0.13 | 0.13 | 94 | 1010.4 |
| 20260509073016 | 20 | 0.0 | 0.0 | 0.00 | 0.13 | 0.13 | 94 | 1011.0 | |
| 20260509072016 | 20 | 0.0 | 1.6 | 0.00 | 0.13 | 0.13 | 94 | 1011.4 | |
| 20260509071016 | 20 | 0.0 | 0.0 | 0.00 | 0.13 | 0.13 | 94 | 1012.4 | |
| 20260509070017 | 20 | 0.0 | 4.8 | 0.00 | 0.13 | 0.13 | 94 | 1012.3 | |
| 20260509065016 | 20 | 0.0 | 0.0 | 0.00 | 0.13 | 0.13 | 94 | 1012.1 | |
| 20260509064017 | 20 | 0.0 | 3.2 | 0.00 | 0.13 | 0.13 | 94 | 1012.2 | |
| 20260509063016 | 20 | 293 | 3.2 | 9.7 | 0.00 | 0.13 | 0.13 | 94 | 1012.1 |
| 20260509062017 | 20 | 0.0 | 4.8 | 0.00 | 0.13 | 0.13 | 93 | 1011.6 | |
| 20260509061016 | 20 | 293 | 4.8 | 9.7 | 0.00 | 0.13 | 0.13 | 93 | 1011.8 |
| 20260509060017 | 20 | 293 | 1.6 | 11.3 | 0.00 | 0.13 | 0.13 | 93 | 1011.5 |
| 20260509055016 | 20 | 270 | 3.2 | 6.4 | 0.00 | 0.13 | 0.13 | 93 | 1011.2 |
| 20260509054016 | 20 | 0.0 | 0.0 | 0.00 | 0.13 | 0.13 | 92 | 1010.7 | |
| 20260509053036 | 20 | 0.0 | 0.0 | 0.00 | 0.13 | 0.13 | 92 | 1010.5 | |
| 20260509052016 | 20 | 0.0 | 0.0 | 0.00 | 0.13 | 0.13 | 92 | 1010.6 | |
| 20260509051016 | 20 | 0.0 | 0.0 | 0.00 | 0.13 | 0.13 | 92 | 1010.4 | |
| 20260509050016 | 20 | 0.0 | 0.0 | 0.00 | 0.13 | 0.13 | 91 | 1010.4 | |
| 20260509045016 | 20 | 0.0 | 0.0 | 0.00 | 0.13 | 0.13 | 91 | 1010.8 | |
| 20260509044016 | 21 | 0.0 | 0.0 | 0.00 | 0.13 | 0.13 | 91 | 1010.7 | |
| 20260509043016 | 21 | 0.0 | 0.0 | 0.00 | 0.13 | 0.13 | 91 | 1010.7 | |
| 20260509042016 | 21 | 0.0 | 3.2 | 0.00 | 0.13 | 0.13 | 91 | 1010.6 | |
| 20260509041016 | 21 | 0.0 | 4.8 | 0.00 | 0.13 | 0.13 | 91 | 1010.2 | |
| 20260509040016 | 21 | 135 | 3.2 | 11.3 | 0.00 | 0.13 | 0.13 | 90 | 1010.2 |
| 20260509035016 | 21 | 135 | 6.4 | 12.9 | 0.00 | 0.13 | 0.13 | 90 | 1009.8 |
| 20260509034016 | 21 | 113 | 6.4 | 12.9 | 0.00 | 0.13 | 0.13 | 90 | 1009.9 |
| 20260509033016 | 21 | 135 | 6.4 | 14.5 | 0.00 | 0.13 | 0.13 | 90 | 1009.7 |
| 20260509032016 | 21 | 135 | 8.0 | 16.1 | 0.00 | 0.13 | 0.13 | 90 | 1009.4 |
| 20260509031016 | 21 | 135 | 11.3 | 17.7 | 0.00 | 0.13 | 0.13 | 90 | 1009.3 |
| 20260509030016 | 21 | 135 | 9.7 | 17.7 | 0.00 | 0.13 | 0.13 | 90 | 1009.0 |
| 20260509025016 | 21 | 135 | 9.7 | 14.5 | 0.00 | 0.13 | 0.13 | 90 | 1009.0 |
| 20260509024016 | 22 | 113 | 6.4 | 11.3 | 0.00 | 0.13 | 0.13 | 89 | 1009.1 |
| 20260509023016 | 22 | 113 | 6.4 | 11.3 | 0.00 | 0.13 | 0.13 | 89 | 1009.1 |
| 20260509022016 | 22 | 0.0 | 0.0 | 0.00 | 0.13 | 0.13 | 89 | 1009.1 | |
| 20260509021016 | 22 | 0.0 | 0.0 | 0.00 | 0.13 | 0.13 | 89 | 1009.1 | |
| 20260509020016 | 22 | 0.0 | 0.0 | 0.00 | 0.13 | 0.13 | 89 | 1009.2 | |
| 20260509015016 | 22 | 0.0 | 0.0 | 0.00 | 0.13 | 0.13 | 88 | 1009.0 | |
| 20260509014016 | 22 | 0.0 | 0.0 | 0.00 | 0.13 | 0.13 | 88 | 1008.9 | |
| 20260509013016 | 22 | 0.0 | 0.0 | 0.00 | 0.13 | 0.13 | 88 | 1008.9 | |
| 20260509012016 | 22 | 0.0 | 0.0 | 0.00 | 0.13 | 0.13 | 87 | 1008.8 | |
| 20260509011016 | 22 | 0.0 | 0.0 | 0.00 | 0.13 | 0.13 | 87 | 1008.5 | |
| 20260509010016 | 22 | 0.0 | 0.0 | 0.00 | 0.13 | 0.13 | 87 | 1008.2 | |
| 20260509005016 | 22 | 0.0 | 0.0 | 0.00 | 0.13 | 0.13 | 87 | 1008.1 | |
| 20260509004016 | 22 | 0.0 | 0.0 | 0.00 | 0.13 | 0.13 | 86 | 1008.1 | |
| 20260509003016 | 23 | 135 | 1.6 | 4.8 | 0.00 | 0.13 | 0.13 | 85 | 1008.3 |
| 20260509002016 | 23 | 0.0 | 0.0 | 0.00 | 0.13 | 0.13 | 85 | 1008.4 | |
| 20260509001016 | 23 | 135 | 1.6 | 6.4 | 0.00 | 0.13 | 0.13 | 84 | 1008.4 |
| 20260509000016 | 23 | 135 | 1.6 | 4.8 | 0.00 | 0.13 | 0.13 | 84 | 1008.5 |
| 20260508235016 | 23 | 135 | 4.8 | 8.0 | 0.00 | 0.13 | 0.13 | 84 | 1008.4 |
| 20260508234016 | 23 | 113 | 4.8 | 11.3 | 0.00 | 0.13 | 0.13 | 84 | 1008.5 |
| 20260508233016 | 23 | 135 | 1.6 | 6.4 | 0.00 | 0.13 | 0.13 | 84 | 1008.5 |
| 20260508232016 | 23 | 135 | 4.8 | 11.3 | 0.00 | 0.13 | 0.13 | 84 | 1008.4 |
| 20260508231016 | 22 | 135 | 4.8 | 12.9 | 0.00 | 0.13 | 0.13 | 84 | 1008.3 |
| 20260508230016 | 23 | 135 | 8.0 | 12.9 | 0.00 | 0.13 | 0.13 | 84 | 1008.4 |
| 20260508225016 | 22 | 135 | 4.8 | 9.7 | 0.00 | 0.13 | 0.13 | 84 | 1008.4 |
| 20260508224016 | 22 | 113 | 9.7 | 14.5 | 0.00 | 0.13 | 0.13 | 85 | 1008.4 |
| 20260508223036 | 22 | 113 | 9.7 | 14.5 | 0.00 | 0.13 | 0.13 | 84 | 1008.5 |
| 20260508222016 | 22 | 113 | 9.7 | 16.1 | 0.00 | 0.13 | 0.13 | 85 | 1008.7 |
| 20260508221016 | 22 | 90 | 9.7 | 16.1 | 0.00 | 0.13 | 0.13 | 85 | 1008.7 |
| 20260508220016 | 22 | 113 | 11.3 | 17.7 | 0.00 | 0.13 | 0.13 | 86 | 1008.8 |
| 20260508215016 | 21 | 90 | 12.9 | 19.3 | 0.00 | 0.13 | 0.13 | 87 | 1008.9 |
| 20260508214016 | 21 | 113 | 8.0 | 14.5 | 0.00 | 0.13 | 0.13 | 89 | 1009.1 |
| 20260508213016 | 21 | 113 | 6.4 | 11.3 | 0.00 | 0.13 | 0.13 | 90 | 1009.3 |
| 20260508212016 | 20 | 135 | 1.6 | 4.8 | 0.00 | 0.13 | 0.13 | 90 | 1009.6 |
| 20260508211016 | 20 | 0.0 | 0.0 | 0.00 | 0.13 | 0.13 | 90 | 1009.7 | |
| 20260508210036 | 20 | 0.0 | 0.0 | 0.03 | 0.13 | 0.13 | 90 | 1009.9 | |
| 20260508205016 | 19 | 0.0 | 0.0 | 0.10 | 0.13 | 0.13 | 90 | 1010.1 | |
| 20260508204016 | 19 | 0.0 | 1.6 | 0.13 | 0.13 | 0.13 | 90 | 1010.1 | |
| 20260508203016 | 18 | 0.0 | 6.4 | 0.13 | 0.13 | 0.13 | 90 | 1010.1 |